Location: Elm Mott Branch
(32.1549°N, 97.5139°W)
Time: 10:59:28
(UTC+00:00)

CENTAUR R/B - Pass Details

Date: 18 November 2025
Orbit: 633 x 1547 km, 63.4° (Epoch: 07 December)

Event Time Altitude Azimuth Distance (km) Brightness Sun altitude
Exits shadow 12:00:19 - 330° (NNW) 4,204 5.4 -13.2°
Reaches altitude 10° 12:02:34 10° 331° (NNW) 3,485 5.0 -12.7°
Maximum altitude 12:11:29 88° 61° (ENE) 1,526 3.5 -10.9°
Drops below altitude 10° 12:21:01 10° 152° (SSE) 3,705 6.2 -9.0°
Sets 12:24:00 0° 152° (SSE) 4,650 6.8 -8.4°
